• In Hungary
  • List of Countries
  • For 7 days
  • Water Temperature
  • Satellite Maps
  • Weather Map
  • News
  • Weather Widgets
  • user-avatar
    Login

    Hourly Weather Akka

    Today, 16 August, Wednesday

    Time Temperature Precipitation Wind Pressure Humidity
    00:00 +28°C° 0 mm 2 mps 753 mmHg 80%
    01:00 +28°C° 0 mm 1 mps 753 mmHg 81%
    02:00 +27°C° 0 mm 1 mps 753 mmHg 83%
    03:00 +27°C° 0 mm 2 mps 753 mmHg 84%
    04:00 +27°C° 0 mm 2 mps 753 mmHg 85%
    05:00 +27°C° 0 mm 2 mps 753 mmHg 86%
    06:00 +28°C° 0 mm 2 mps 753 mmHg 78%
    07:00 +29°C° 0 mm 2 mps 754 mmHg 71%
    08:00 +30°C° 0 mm 3 mps 753 mmHg 66%
    09:00 +33°C° 0 mm 3 mps 753 mmHg 60%
    10:00 +34°C° 0 mm 3 mps 753 mmHg 53%
    11:00 +36°C° 0 mm 4 mps 753 mmHg 47%
    12:00 +36°C° 0 mm 4 mps 753 mmHg 46%
    13:00 +36°C° 0 mm 4 mps 753 mmHg 46%
    14:00 +36°C° 0 mm 4 mps 753 mmHg 46%
    15:00 +36°C° 0 mm 4 mps 753 mmHg 48%
    16:00 +35°C° 0 mm 4 mps 753 mmHg 50%
    17:00 +34°C° 0 mm 3 mps 752 mmHg 53%
    18:00 +33°C° 0 mm 3 mps 752 mmHg 58%
    19:00 +31°C° 0 mm 2 mps 752 mmHg 62%
    20:00 +29°C° 0 mm 1 mps 753 mmHg 67%
    21:00 +29°C° 0 mm 1 mps 753 mmHg 70%
    22:00 +28°C° 0 mm 1 mps 753 mmHg 73%
    23:00 +28°C° 0 mm 1 mps 753 mmHg 75%

    Tomorrow, 17 August, Thursday

    Time Temperature Precipitation Wind Pressure Humidity
    00:00 +27°C° 0 mm 1 mps 753 mmHg 77%
    01:00 +27°C° 0 mm 1 mps 753 mmHg 79%
    02:00 +27°C° 0 mm 1 mps 753 mmHg 80%
    03:00 +26°C° 0 mm 1 mps 753 mmHg 81%
    04:00 +26°C° 0 mm 1 mps 753 mmHg 82%
    05:00 +26°C° 0 mm 1 mps 753 mmHg 82%
    06:00 +27°C° 0 mm 2 mps 753 mmHg 73%
    07:00 +29°C° 0 mm 2 mps 753 mmHg 63%
    08:00 +31°C° 0 mm 2 mps 754 mmHg 53%
    09:00 +33°C° 0 mm 3 mps 754 mmHg 48%
    10:00 +35°C° 0 mm 3 mps 754 mmHg 42%
    11:00 +36°C° 0 mm 4 mps 754 mmHg 36%
    12:00 +37°C° 0 mm 4 mps 754 mmHg 38%
    13:00 +37°C° 0 mm 4 mps 754 mmHg 40%
    14:00 +37°C° 0 mm 5 mps 753 mmHg 43%
    15:00 +36°C° 0 mm 4 mps 753 mmHg 46%
    16:00 +35°C° 0 mm 4 mps 753 mmHg 49%
    17:00 +34°C° 0 mm 3 mps 753 mmHg 53%
    18:00 +32°C° 0 mm 2 mps 754 mmHg 57%
    19:00 +31°C° 0 mm 1 mps 754 mmHg 61%
    20:00 +30°C° 0 mm 1 mps 754 mmHg 66%
    21:00 +27°C° 0 mm 0 mps 754 mmHg 66%
    22:00 +27°C° 0 mm 0 mps 754 mmHg 67%
    23:00 +27°C° 0 mm 0 mps 754 mmHg 68%

    Day after tomorrow, 18 August, Friday

    Time Temperature Precipitation Wind Pressure Humidity
    00:00 +28°C° 0 mm 1 mps 754 mmHg 69%
    01:00 +28°C° 0 mm 1 mps 754 mmHg 69%
    02:00 +28°C° 0 mm 1 mps 754 mmHg 70%
    03:00 +27°C° 0 mm 1 mps 754 mmHg 71%
    04:00 +27°C° 0 mm 2 mps 755 mmHg 73%
    05:00 +27°C° 0 mm 2 mps 755 mmHg 74%
    06:00 +28°C° 0 mm 2 mps 755 mmHg 68%
    07:00 +30°C° 0 mm 2 mps 756 mmHg 61%
    08:00 +31°C° 0 mm 3 mps 756 mmHg 55%
    09:00 +34°C° 0 mm 3 mps 756 mmHg 50%
    10:00 +35°C° 0 mm 3 mps 756 mmHg 45%
    11:00 +36°C° 0 mm 4 mps 756 mmHg 40%
    12:00 +37°C° 0 mm 4 mps 756 mmHg 40%
    13:00 +37°C° 0 mm 4 mps 756 mmHg 41%
    14:00 +37°C° 0 mm 4 mps 756 mmHg 41%
    15:00 +36°C° 0 mm 4 mps 756 mmHg 44%
    16:00 +35°C° 0 mm 3 mps 756 mmHg 47%
    17:00 +35°C° 0 mm 3 mps 756 mmHg 50%
    18:00 +33°C° 0 mm 3 mps 756 mmHg 55%
    19:00 +31°C° 0 mm 2 mps 756 mmHg 61%
    20:00 +30°C° 0 mm 1 mps 757 mmHg 66%
    21:00 +29°C° 0 mm 1 mps 757 mmHg 68%
    22:00 +29°C° 0 mm 1 mps 757 mmHg 69%
    23:00 +29°C° 0 mm 1 mps 757 mmHg 71%

    19 August, Saturday

    Time Temperature Precipitation Wind Pressure Humidity
    00:00 +28°C° 0 mm 1 mps 757 mmHg 70%
    01:00 +28°C° 0 mm 1 mps 757 mmHg 69%
    02:00 +28°C° 0 mm 1 mps 756 mmHg 69%
    03:00 +28°C° 0 mm 1 mps 757 mmHg 69%
    04:00 +25°C° 0 mm 0 mps 757 mmHg 69%
    05:00 +25°C° 0 mm 0 mps 757 mmHg 69%
    06:00 +27°C° 0 mm 0 mps 757 mmHg 60%
    07:00 +31°C° 0 mm 1 mps 757 mmHg 52%
    08:00 +32°C° 0 mm 1 mps 758 mmHg 43%
    09:00 +34°C° 0 mm 1 mps 758 mmHg 39%
    10:00 +36°C° 0 mm 2 mps 758 mmHg 35%
    11:00 +38°C° 0 mm 3 mps 758 mmHg 31%
    12:00 +38°C° 0 mm 3 mps 757 mmHg 31%
    13:00 +38°C° 0 mm 4 mps 757 mmHg 32%
    14:00 +38°C° 0 mm 4 mps 757 mmHg 33%
    15:00 +37°C° 0 mm 4 mps 757 mmHg 35%
    16:00 +37°C° 0 mm 4 mps 757 mmHg 38%
    17:00 +36°C° 0 mm 4 mps 757 mmHg 40%
    18:00 +34°C° 0 mm 4 mps 757 mmHg 46%
    19:00 +33°C° 0 mm 3 mps 757 mmHg 53%
    20:00 +31°C° 0 mm 3 mps 758 mmHg 59%
    21:00 +30°C° 0 mm 3 mps 758 mmHg 61%
    22:00 +30°C° 0 mm 3 mps 758 mmHg 63%
    23:00 +29°C° 0 mm 3 mps 758 mmHg 65%

    20 August, Sunday

    Time Temperature Precipitation Wind Pressure Humidity
    00:00 +29°C° 0 mm 3 mps 757 mmHg 64%
    01:00 +29°C° 0 mm 2 mps 757 mmHg 63%
    02:00 +29°C° 0 mm 2 mps 757 mmHg 61%
    03:00 +29°C° 0 mm 2 mps 757 mmHg 61%
    04:00 +28°C° 0 mm 2 mps 757 mmHg 62%
    05:00 +28°C° 0 mm 2 mps 757 mmHg 62%
    06:00 +29°C° 0 mm 2 mps 757 mmHg 56%
    07:00 +31°C° 0 mm 2 mps 757 mmHg 50%
    08:00 +34°C° 0 mm 2 mps 758 mmHg 44%
    09:00 +35°C° 0 mm 3 mps 758 mmHg 41%
    10:00 +36°C° 0 mm 3 mps 757 mmHg 38%
    11:00 +37°C° 0 mm 4 mps 757 mmHg 36%
    12:00 +37°C° 0 mm 4 mps 757 mmHg 36%
    13:00 +38°C° 0 mm 4 mps 756 mmHg 37%
    14:00 +39°C° 0 mm 5 mps 756 mmHg 37%
    15:00 +37°C° 0 mm 5 mps 756 mmHg 40%
    16:00 +36°C° 0 mm 4 mps 756 mmHg 44%
    17:00 +35°C° 0 mm 4 mps 756 mmHg 47%
    18:00 +33°C° 0 mm 4 mps 756 mmHg 52%
    19:00 +31°C° 0 mm 3 mps 756 mmHg 57%
    20:00 +30°C° 0 mm 3 mps 757 mmHg 63%
    21:00 +30°C° 0 mm 3 mps 757 mmHg 64%
    22:00 +29°C° 0 mm 3 mps 757 mmHg 65%
    23:00 +29°C° 0 mm 2 mps 756 mmHg 67%

    21 August, Monday

    Time Temperature Precipitation Wind Pressure Humidity
    00:00 +29°C° 0 mm 2 mps 756 mmHg 67%
    01:00 +28°C° 0 mm 2 mps 756 mmHg 68%
    02:00 +28°C° 0 mm 2 mps 756 mmHg 69%
    03:00 +28°C° 0 mm 2 mps 756 mmHg 70%
    04:00 +27°C° 0 mm 1 mps 756 mmHg 71%
    05:00 +27°C° 0 mm 1 mps 756 mmHg 72%
    06:00 +28°C° 0 mm 1 mps 756 mmHg 65%
    07:00 +30°C° 0 mm 1 mps 757 mmHg 58%
    08:00 +31°C° 0 mm 2 mps 757 mmHg 52%
    09:00 +32°C° 0 mm 2 mps 757 mmHg 46%
    10:00 +35°C° 0 mm 3 mps 756 mmHg 41%
    11:00 +36°C° 0 mm 3 mps 756 mmHg 35%
    12:00 +37°C° 0 mm 4 mps 756 mmHg 36%
    13:00 +37°C° 0 mm 4 mps 756 mmHg 36%
    14:00 +37°C° 0 mm 5 mps 755 mmHg 37%
    15:00 +36°C° 0 mm 5 mps 755 mmHg 40%
    16:00 +35°C° 0 mm 5 mps 755 mmHg 44%
    17:00 +34°C° 0 mm 5 mps 755 mmHg 47%
    18:00 +33°C° 0 mm 4 mps 755 mmHg 53%
    19:00 +32°C° 0 mm 4 mps 755 mmHg 59%
    20:00 +30°C° 0 mm 3 mps 756 mmHg 64%
    21:00 +29°C° 0 mm 3 mps 756 mmHg 67%
    22:00 +29°C° 0 mm 3 mps 756 mmHg 69%
    23:00 +29°C° 0 mm 3 mps 756 mmHg 71%
    Show more